Location: Biharia
(46.4333°N, 22.8000°E)
Time: 19:13:10
(UTC+00:00)

CSL-04 Rocket - Pass Details

Date: 03 June 2022
Orbit: 807 x 859 km, 98.9° (Epoch: 28 June)

Event Time Altitude Azimuth Distance (km) Brightness Sun altitude
Rises 19:34:38 0° 214° (SSW) 3,336 6.6 -10.9°
Reaches altitude 10° 19:37:59 10° 236° (SW) 2,420 6.2 -11.3°
Maximum altitude 19:41:04 15° 272° (W) 2,075 6.3 -11.6°
Drops below altitude 10° 19:44:12 10° 307° (NW) 2,450 7.5 -12.0°
Sets 19:47:39 0° 330° (NNW) 3,402 8.9 -12.3°
